Ana Sayfa
METAR-TAF:

METAR-TAF

Havaalanları :

Normanton, Avustralya

Enlem: 17-41-06S, Boylam: 141-04-12E, yükseklik: 22 m

Güncel hava durumu gözlemi

Rapor saat 17:00 UTC de 1 saat ve 9 dakika önce yapıldı.
Rüzgar doğu/güneydoğudan 3 kt
Sıcaklık 29°C
Nem 66%
Basınç 1007 hPa
Görüş mesafesi 10 km veya daha fazla

METAR: YNTN 101700Z AUTO 11003KT 9999 // NCD 29/22 Q1007

Saat: 04:09 (18:09 UTC)


TAF: eksik

4.000'den fazla havaalanı için hava durumu gözlemleri ve tahminleri (METAR ve TAF raporları).

Kullanılabilir istasyonlar harita üzerinde sarı ve kırmızı noktalarla gösterilir.

İstasyonun adını görmek için fareyi noktanın üzerinde gezdirin.

Sonrasında hava gözlem ve tahminlerini görmek için tıklayın.

Haritayı değiştirmek için: yaklaştırmak için siyah artı işaretli yeşil düğmeye ve uzaklaştırmak için de eksi işaretli düğmeye hızla tıklayın; bitişik haritalar için yeşil okları kullanın.


METAR-TAF: